Location: Boiro
(42.6475°N, 8.8834°W)
Time: 20:34:51
(UTC+01:00)

XW-2D - Visible Passes

Search period start: 19 January 2022 00:00
Search period end: 29 January 2022 00:00
Orbit: 502 x 522 km, 97.5° (Epoch: 19 January)

Date Brightness Start Highest point End Pass type
(mag) Time Alt. Az. Time Alt. Az. Time Alt. Az.
19 Jan ? 07:17:50 10° NNE 07:21:24 44° E 07:24:55 10° S visible
19 Jan ? 19:32:25 10° SSW 19:35:30 24° W 19:38:35 10° NW visible
20 Jan ? 07:02:10 10° NE 07:05:24 28° E 07:08:37 10° SSE visible
20 Jan ? 19:16:00 10° SSW 19:19:30 36° W 19:23:00 10° NNW visible
21 Jan ? 06:46:44 10° NE 06:49:22 18° E 06:51:59 10° SE visible
21 Jan ? 08:20:09 10° N 08:23:23 29° WNW 08:26:35 10° SW visible
22 Jan ? 06:31:49 10° ENE 06:33:17 12° E 06:34:45 10° ESE visible
22 Jan ? 08:03:58 10° N 08:07:31 45° WNW 08:11:02 10° SW visible
23 Jan ? 07:47:54 10° N 07:51:36 73° WNW 07:55:16 10° SSW visible
23 Jan ? 20:05:08 10° WSW 20:05:56 11° W 20:06:43 10° WNW visible
24 Jan ? 07:31:58 10° NNE 07:35:39 69° ESE 07:39:19 10° S visible
24 Jan ? 19:47:24 10° SW 19:49:50 16° W 19:52:14 10° NW visible
25 Jan ? 07:16:07 10° NNE 07:19:39 42° E 07:23:09 10° S visible
25 Jan ? 19:30:38 10° SSW 19:33:44 25° W 19:36:52 10° NW visible
26 Jan ? 07:00:25 10° NE 07:03:37 27° E 07:06:46 10° SSE visible
26 Jan ? 19:14:11 10° SSW 19:17:41 38° W 19:21:12 10° NNW visible
27 Jan ? 06:44:59 10° NE 06:47:31 17° E 06:50:03 10° SE visible
27 Jan ? 08:18:17 10° N 08:21:34 30° WNW 08:24:49 10° SW visible
28 Jan ? 06:30:10 10° ENE 06:31:24 11° E 06:32:37 10° ESE visible
28 Jan ? 08:02:04 10° N 08:05:39 47° WNW 08:09:12 10° SSW visible
